STARLINK-5674 (55465 NORAD) Tracking and Keplerian Element Data

This shows tracking and keplerian element data for the satellite.

Feedback or suggestion? Click here.




ElementValue
Catalog55465
NameSTARLINK-5674
Epoch Orbit812
Epoch Day85.25001157
Epoch Year2023
RAAN76.7364
Inclination43.0009
Eccentricity0.0001457
Argument of Perigee275.1139
Mean Anonmoly146.2292
Mean Motion15.48946176
Decay Rate-0.00079251
L11 55465U 23015S 23085.25001157 -.00079251 00000+0 -14398-2 0 9997
L22 55465 43.0009 76.7364 0001457 275.1139 146.2292 15.48946176 8129



Live tracking and technical data element details for STARLINK-5674 (NORAD 55465). STARLINK-5674 can be tracked NOW for your location showing map with azimuth and elevation plus other details from your city location.







IsCatalogInMostPopularTable: catalog: 55465, numindb: -1

Insert: records affected: 1


GetName: 55465 STARLINK-5674

Hit Count: inserted at: Tue, 28 Mar 2023 01:41:03 GMT